GFSMA_850_dewp_000.txt.gz
Dewpoint
1 1 3 3 3 3 3 3 3 4 4 2 -0 -2 -3 -3 -3 -6 -6 -1 -2 -5 -9 -8 -8 -8 -8 -8 -7 2 5 4 7 7 7 6 10 9 8 7 9 10 9
-0 0 -2 1 3 3 3 3 4 4 4 4 4 1 -0 -1 -3 -1 -0 1 -1 -2 -6 -9 -9 -9 -9 -9 -8 -7 0 6 5 7 8 9 8 10 8 8 8 9 9
0 -1 -0 3 4 4 4 3 4 4 3 4 4 3 2 0 -1 -1 -2 -1 -1 -2 -3 -6 -10 -10 -9 -9 -9 -9 -6 1 7 7 7 9 8 7 9 9 9 9 9
4 3 3 2 3 4 3 4 3 3 4 3 3 3 3 2 1 -1 -1 -1 -1 -2 -2 -3 -8 -10 -9 -8 -8 -9 -9 -9 0 5 6 7 9 8 10 9 9 9 9
3 3 1 1 1 2 2 4 4 4 5 4 3 3 2 2 2 -0 -1 -1 -1 -1 -1 -2 -3 -4 -9 -9 -8 -8 -8 -9 -10 -7 3 6 6 8 9 10 10 9 10
3 -0 0 -0 1 2 2 2 3 3 -0 -1 2 3 3 2 2 1 1 -1 -1 -1 -1 -2 -2 -2 -4 -7 -8 -8 -9 -9 -9 -9 -9 -3 5 6 6 7 8 9 8
0 0 0 1 1 0 -0 -0 -2 -2 -1 0 1 2 2 2 4 4 4 2 -0 -1 -1 -2 -2 -3 -2 -4 -6 -7 -9 -9 -10 -10 -9 -9 -7 -0 6 6 7 6 10
1 2 -1 -2 -1 -1 -2 -1 0 -0 -2 -3 -1 -0 1 1 1 1 1 2 2 1 0 -1 -2 -2 -1 -1 -2 -5 -8 -9 -10 -11 -11 -10 -9 -7 -4 2 5 7 7
1 -1 -2 -2 -2 -2 -3 -8 -5 -3 -1 -1 -1 0 1 1 1 0 1 1 1 2 3 3 2 -1 -1 0 -2 -4 -6 -7 -9 -10 -10 -11 -10 -9 -9 -5 -2 1 4
-1 -2 -3 -3 -3 -3 -4 -2 -1 -3 -3 -1 -1 1 1 2 2 2 1 2 2 2 3 3 2 2 -0 0 -2 -3 -4 -5 -6 -7 -7 -8 -8 -10 -9 -8 -5 -2 -0
-2 -3 -4 -4 -4 -5 -5 -2 -1 -2 -1 0 1 1 1 -1 -3 -1 -1 -1 -0 1 1 3 3 2 0 -2 -1 -3 -2 -3 -4 -5 -6 -7 -8 -8 -11 -9 -7 -6 -2
-4 -5 -4 -5 -4 -2 -2 -2 -1 -0 -0 -0 -1 -1 -1 -2 -2 -1 -1 -4 -2 -4 -3 -0 2 2 2 1 -1 -2 -3 -4 -4 -5 -8 -7 -7 -8 -10 -11 -8 -6 -7
-3 -4 -4 -4 -2 -2 -2 -2 -2 -2 -1 -2 -1 -1 -1 -2 -3 -3 -1 -2 -2 -2 -4 -4 -2 1 1 1 0 0 0 -3 -4 -4 -5 -7 -9 -10 -10 -10 -8 -0 -6
-4 -4 -3 -3 -3 -3 -3 -3 -4 -3 -3 -3 -2 -2 -2 -4 -4 -5 -4 -4 -5 -5 -5 -4 -3 -3 -0 0 0 0 -0 -2 -3 -4 -5 -8 -5 -8 -8 -9 -10 -8 -5
-3 -3 -3 -3 -3 -3 -3 -3 -3 -3 -3 -3 -2 -3 -4 -4 -7 -6 -5 -4 -3 -2 -4 -7 -3 -3 -3 -2 -0 -0 -1 -2 -4 -4 -5 -7 -3 -4 -5 -4 -6 -5 -4
-3 -4 -2 -3 -2 -2 -2 -2 -3 -3 -4 -4 -3 -3 -3 -3 -3 -4 -5 -6 -6 -6 -5 -6 -6 -8 -6 -5 -2 -1 -2 -3 -4 -3 -4 -5 -6 -5 -4 -4 -4 -4 -3
-6 -5 -5 -7 -6 -4 -6 -6 -7 -8 -7 -7 -6 -4 -4 -4 -4 -4 -4 -5 -7 -9 -8 -9 -9 -9 -9 -9 -7 -5 -3 -5 -6 -6 -7 -7 -8 -8 -5 -4 -4 -5 -5
-4 -4 -5 -5 -6 -7 -7 -7 -8 -8 -7 -6 -5 -6 -7 -7 -8 -7 -7 -6 -9 -9 -10 -10 -10 -10 -11 -11 -10 -10 -9 -7 -7 -7 -7 -7 -8 -9 -10 -10 -8 -5 -5
-7 -7 -9 -11 -11 -12 -11 -11 -11 -9 -8 -8 -11 -11 -9 -9 -9 -9 -11 -10 -10 -9 -9 -9 -10 -10 -11 -11 -11 -11 -10 -10 -9 -9 -8 -9 -8 -9 -8 -10 -11 -11 -11
-10 -11 -12 -12 -12 -11 -11 -11 -11 -11 -12 -12 -14 -16 -12 -11 -9 -9 -8 -8 -9 -9 -8 -9 -10 -11 -11 -11 -12 -13 -13 -12 -11 -10 -9 -9 -9 -9 -9 -9 -10 -11 -12
-12 -13 -13 -12 -12 -11 -11 -11 -11 -10 -10 -11 -12 -14 -15 -12 -11 -11 -9 -8 -9 -10 -13 -13 -13 -11 -10 -11 -11 -9 -8 -8 -8 -8 -8 -9 -9 -8 -8 -9 -10 -10 -11
-13 -13 -12 -12 -11 -10 -9 -10 -10 -9 -10 -10 -11 -14 -13 -12 -12 -11 -10 -9 -10 -12 -12 -12 -12 -11 -10 -10 -9 -9 -9 -8 -8 -9 -9 -9 -9 -8 -8 -6 -5 -5 -5
-13 -12 -12 -11 -11 -9 -9 -9 -9 -9 -11 -13 -13 -11 -11 -10 -10 -9 -9 -9 -9 -9 -9 -9 -9 -10 -11 -12 -11 -10 -10 -9 -8 -8 -9 -9 -9 -9 -9 -8 -6 -5 -6
-13 -12 -11 -10 -10 -9 -9 -10 -11 -11 -12 -14 -13 -12 -12 -11 -11 -10 -10 -10 -11 -11 -11 -10 -11 -11 -9 -10 -10 -10 -9 -9 -10 -9 -9 -8 -9 -10 -10 -9 -8 -8 -8
-12 -11 -10 -9 -9 -10 -11 -10 -9 -11 -12 -14 -14 -12 -11 -12 -12 -12 -11 -12 -13 -13 -13 -12 -11 -10 -10 -10 -10 -10 -10 -10 -9 -9 -10 -10 -9 -9 -10 -11 -12 -12 -12
-11 -10 -10 -10 -11 -12 -9 -9 -10 -11 -12 -13 -13 -13 -13 -12 -11 -11 -10 -10 -10 -11 -10 -11 -10 -11 -11 -11 -10 -9 -9 -9 -12 -11 -12 -11 -8 -8 -7 -10 -11 -12 -13

GFSMA_850_dewp_003.txt.gz
Dewpoint
0 -0 -1 -2 -1 2 3 3 3 3 4 4 4 4 4 3 2 1 -3 -6 -5 -5 -3 -6 -9 -9 -9 -9 -8 -5 2 6 5 6 7 7 8 10 9 8 7 9 9
-0 0 -1 -2 -1 4 4 4 4 2 4 4 4 3 4 4 3 2 1 -1 -2 -4 -5 -4 -6 -8 -9 -9 -9 -9 -8 -5 4 6 6 7 6 6 6 9 7 8 9
5 4 3 2 2 1 2 1 -0 3 4 3 4 3 3 2 2 2 2 0 -1 -2 -2 -4 -6 -5 -8 -10 -10 -9 -8 -8 -5 4 7 7 8 5 7 10 8 7 9
4 3 3 -0 -1 -1 -0 1 -1 2 3 5 5 4 3 2 3 2 2 1 -1 -1 -1 -1 -2 -3 -6 -10 -10 -9 -8 -9 -9 -6 2 6 7 9 9 9 10 8 8
1 2 2 -1 -1 -1 1 2 3 3 3 2 0 -3 -0 4 3 3 3 3 1 -0 -1 -1 -2 -2 -4 -6 -9 -9 -8 -8 -8 -9 -9 -0 5 7 9 9 8 9 9
-1 -1 -1 1 1 0 -0 0 0 0 -1 -2 2 2 2 1 3 2 2 3 3 3 1 -0 -1 -2 -3 -4 -6 -10 -9 -9 -9 -8 -9 -9 -5 4 6 8 10 10 9
-1 -0 -0 0 -1 -1 -1 -1 -1 -2 -1 -3 -5 -6 -6 -7 -3 -5 0 1 2 3 2 1 -0 -1 -1 -3 -4 -5 -6 -9 -9 -9 -9 -9 -9 -9 -4 5 6 8 9
1 1 1 -1 -1 -2 -2 -1 -3 -4 -5 -4 -4 -3 -1 -2 -3 -2 0 2 1 2 3 3 3 1 1 -1 -3 -4 -5 -6 -9 -10 -10 -11 -10 -9 -9 -7 3 6 8
-2 -0 -1 -2 -3 -3 -3 -3 -3 -5 -6 -5 -5 -3 -1 -1 -0 -2 -2 0 2 3 3 3 5 4 3 1 -1 -2 -3 -4 -6 -9 -9 -10 -11 -11 -11 -10 -8 -3 4
-2 -1 -2 -4 -5 -4 -4 -4 -6 -7 -4 -3 -2 -1 2 2 -0 -1 -1 -2 -2 -3 -0 -1 1 4 4 3 2 1 -1 -2 -5 -7 -7 -7 -7 -9 -10 -10 -9 -9 -6
-1 -2 -5 -7 -8 -7 -8 -7 -5 -3 -2 -1 -1 -0 1 -1 -1 -1 -2 -4 -7 -9 -9 -8 -8 -6 0 3 3 2 1 -1 -3 -4 -5 -6 -6 -6 -7 -6 -9 -9 -6
-3 -7 -8 -6 -4 -4 -3 -3 -3 -3 -2 -3 -3 -4 -3 -1 -2 -2 -3 -6 -4 -8 -10 -11 -10 -6 -6 -0 1 1 1 -0 -1 -3 -3 -4 -6 -6 -6 -3 -1 -2 -8
-7 -5 -6 -4 -4 -3 -3 -3 -3 -4 -4 -3 -4 -3 -3 -3 -2 -4 -4 -2 -3 -7 -7 -8 -8 -5 -3 -3 -2 0 0 1 0 -1 -2 -4 -5 -5 -6 -8 -5 -0 1
-3 -3 -4 -3 -4 -3 -2 -2 -3 -3 -3 -3 -2 -3 -4 -4 -3 -4 -5 -4 -4 -3 -5 -7 -8 -7 -3 -3 -1 -0 -1 -0 0 -0 -3 -3 -4 -5 -5 -9 -7 -3 0
-3 -3 -2 -4 -2 -2 -4 -4 -4 -6 -7 -6 -5 -5 -5 -3 -3 -3 -3 -3 -3 -3 -4 -7 -8 -11 -9 -7 -5 -4 -1 -0 -0 -0 -1 -4 -5 -6 -7 -6 -6 -5 -2
-2 -6 -10 -8 -8 -8 -7 -8 -9 -10 -11 -10 -8 -7 -6 -5 -4 -4 -3 -3 -3 -4 -5 -6 -8 -9 -9 -8 -7 -5 -2 -1 -1 -2 -3 -5 -5 -5 -7 -5 -3 -4 -2
-5 -10 -8 -7 -8 -10 -11 -12 -11 -11 -10 -9 -8 -6 -7 -7 -7 -7 -7 -6 -6 -5 -5 -6 -8 -10 -11 -10 -10 -8 -4 -3 -2 -1 -2 -5 -7 -9 -7 -7 -5 -3 -4
-8 -8 -8 -10 -12 -13 -13 -12 -11 -11 -10 -8 -8 -8 -9 -12 -16 -10 -8 -7 -8 -10 -9 -6 -8 -9 -9 -10 -10 -10 -9 -4 -4 -3 -5 -7 -7 -8 -8 -9 -10 -9 -6
-7 -9 -11 -13 -14 -13 -12 -12 -12 -11 -11 -11 -11 -12 -12 -14 -16 -16 -11 -9 -9 -8 -9 -9 -9 -9 -10 -10 -11 -11 -11 -10 -5 -9 -6 -6 -7 -8 -9 -9 -10 -10 -11
-9 -12 -13 -14 -15 -13 -12 -12 -11 -11 -10 -11 -11 -10 -11 -12 -14 -15 -11 -10 -9 -9 -9 -9 -10 -10 -10 -10 -11 -12 -12 -11 -11 -10 -12 -11 -10 -9 -9 -9 -9 -10 -10
-12 -14 -13 -15 -13 -12 -12 -11 -10 -10 -10 -10 -10 -13 -15 -16 -12 -11 -10 -10 -10 -9 -9 -10 -10 -12 -14 -15 -15 -12 -10 -10 -8 -8 -9 -9 -9 -9 -9 -9 -9 -10 -11
-12 -12 -14 -14 -12 -11 -10 -10 -9 -9 -9 -12 -12 -14 -16 -12 -10 -9 -9 -9 -8 -8 -9 -11 -11 -12 -12 -12 -13 -13 -10 -10 -10 -10 -9 -9 -8 -8 -8 -8 -8 -8 -8
-10 -12 -14 -12 -11 -10 -10 -8 -9 -11 -11 -11 -12 -15 -15 -13 -13 -12 -11 -10 -10 -10 -9 -9 -9 -10 -10 -12 -12 -13 -13 -12 -10 -11 -10 -10 -10 -9 -9 -9 -9 -8 -7
-11 -13 -12 -11 -11 -9 -10 -12 -11 -10 -10 -10 -13 -14 -14 -12 -12 -11 -13 -13 -12 -13 -13 -13 -13 -13 -13 -12 -12 -10 -9 -9 -10 -11 -12 -12 -13 -12 -12 -12 -10 -9 -8
-13 -12 -12 -12 -10 -10 -12 -11 -10 -10 -11 -12 -13 -14 -14 -13 -13 -12 -12 -12 -12 -12 -13 -12 -12 -11 -10 -10 -10 -10 -10 -11 -12 -12 -12 -10 -11 -11 -12 -13 -12 -12 -11
-12 -11 -11 -10 -10 -12 -11 -10 -10 -11 -12 -12 -13 -14 -14 -12 -11 -11 -12 -12 -12 -13 -12 -12 -12 -12 -13 -11 -10 -10 -10 -9 -9 -10 -13 -12 -12 -12 -11 -11 -12 -13 -13

GFSMA_850_dewp_006.txt.gz
Dewpoint
-1 2 3 2 3 4 3 3 4 4 3 1 4 3 3 4 3 3 1 2 2 0 -1 -3 -6 -6 -8 -8 -8 -8 -5 -2 1 5 4 6 7 8 10 9 8 6 7
4 5 4 2 2 1 0 1 2 2 1 1 2 3 3 4 4 4 4 3 2 2 0 -1 -2 -5 -6 -7 -8 -9 -8 -8 -7 -4 4 5 7 8 9 10 9 8 5
6 6 5 4 1 -2 -2 -2 -2 -2 0 2 4 4 4 2 0 1 2 2 3 2 1 -0 -1 -2 -2 -3 -5 -7 -10 -9 -8 -7 -4 4 6 7 9 9 10 9 8
6 4 3 1 1 -0 -1 -0 -0 -0 1 2 3 2 1 -1 -0 2 3 2 2 3 2 1 0 -1 -1 -2 -3 -6 -9 -10 -8 -8 -8 -5 6 7 7 8 8 10 9
3 0 -1 -1 -0 -0 -0 -0 -0 -0 -0 -0 -0 -0 -1 -0 1 1 2 1 1 3 4 3 2 1 -1 -1 -2 -3 -5 -8 -9 -8 -8 -9 -6 4 7 8 10 10 9
-1 -1 -1 0 0 -0 -1 -0 -1 -1 -1 -2 -4 -6 -7 -7 -7 -6 -3 -2 -1 2 2 1 2 3 1 -1 -2 -2 -3 -5 -9 -8 -8 -8 -9 -7 0 6 8 10 9
-1 0 1 1 0 -1 -1 -2 -2 -1 -3 -5 -5 -6 -8 -9 -9 -9 -7 -4 -1 1 2 3 3 3 3 1 -1 -1 -2 -3 -9 -8 -8 -8 -8 -8 -7 -3 4 6 9
-0 -3 -0 -0 -1 -2 -3 -3 -3 -3 -4 -6 -7 -9 -5 -8 -9 -4 -4 -4 -2 -1 -0 1 3 4 3 3 2 0 -1 -2 -5 -6 -6 -8 -9 -10 -9 -7 -6 0 5
-3 -2 -1 -2 -3 -5 -7 -6 -6 -6 -7 -8 -8 -3 -1 0 0 -1 -1 -1 -2 -1 -2 -3 -6 -3 2 3 2 2 1 0 -1 -4 -3 -7 -9 -11 -11 -10 -7 -5 -3
-1 -1 -2 -3 -7 -8 -9 -10 -10 -8 -8 -6 -3 -1 -1 -3 -0 -1 -1 -2 -3 -4 -5 -7 -9 -10 -10 -6 1 3 2 1 0 -5 -4 -6 -8 -9 -11 -11 -10 -9 -6
-2 -3 -5 -6 -12 -12 -10 -6 -5 -4 -3 -3 -4 -2 -3 -3 -3 -4 -4 -4 -5 -6 -7 -9 -9 -10 -9 -7 -7 -5 2 1 1 0 -1 -3 -6 -7 -7 -8 -9 -9 -9
-1 -2 -4 -9 -6 -5 -6 -4 -4 -4 -3 -2 -2 -2 -2 -2 -2 -3 -4 -6 -4 -7 -8 -9 -7 -8 -7 -3 -1 1 -2 1 2 2 -1 -3 -4 -5 -6 -6 -7 -0 2
-1 -3 -4 -4 -3 -4 -8 -3 -3 -3 -4 -4 -2 -3 -3 -3 -3 -3 -3 -4 -4 -7 -7 -7 -8 -10 -7 -3 -3 -1 1 0 -2 1 -0 -1 -3 -4 -7 -8 -6 -5 1
-3 -3 -2 -3 -6 -10 -6 -6 -9 -9 -9 -10 -11 -10 -8 -6 -4 -3 -3 -3 -3 -3 -4 -5 -5 -9 -11 -8 -5 -5 -2 -0 1 -1 -0 -0 -0 -1 -3 -4 -5 -6 -5
-3 -2 -3 -11 -15 -14 -10 -10 -12 -13 -13 -13 -14 -12 -9 -7 -5 -5 -5 -5 -5 -5 -5 -4 -5 -7 -10 -10 -7 -6 -4 -2 -1 0 0 0 0 0 1 -1 -5 -7 -6
-2 -2 -8 -14 -13 -12 -11 -12 -13 -14 -12 -12 -12 -11 -11 -9 -9 -11 -12 -9 -6 -5 -5 -6 -6 -7 -9 -10 -10 -10 -8 -6 -4 -1 -0 -0 -1 -3 -3 -3 -3 -6 -4
-1 -4 -10 -9 -13 -14 -13 -13 -13 -13 -12 -12 -10 -8 -8 -9 -10 -11 -13 -16 -10 -6 -5 -7 -9 -8 -8 -9 -10 -10 -9 -7 -5 -2 -1 -1 -2 -2 -3 -8 -8 -6 -4
-5 -6 -7 -9 -13 -14 -14 -14 -14 -13 -12 -11 -11 -11 -11 -12 -14 -12 -13 -15 -17 -11 -8 -6 -6 -8 -9 -9 -9 -10 -11 -9 -7 -3 -2 -1 -2 -5 -8 -9 -9 -10 -10
-6 -3 -10 -12 -14 -15 -15 -13 -12 -11 -11 -10 -10 -10 -10 -11 -13 -14 -14 -14 -16 -15 -8 -7 -7 -7 -9 -9 -9 -10 -11 -11 -8 -7 -5 -3 -2 -4 -6 -8 -9 -9 -10
-5 -9 -12 -14 -14 -14 -13 -12 -11 -10 -10 -9 -9 -9 -12 -14 -15 -15 -11 -10 -10 -12 -11 -10 -9 -9 -10 -9 -10 -12 -10 -11 -10 -8 -7 -5 -9 -5 -6 -8 -9 -9 -9
-9 -10 -13 -12 -14 -13 -12 -10 -10 -9 -9 -10 -13 -12 -12 -14 -16 -11 -10 -9 -9 -8 -8 -8 -8 -10 -10 -12 -13 -14 -15 -16 -13 -11 -8 -7 -9 -10 -10 -9 -9 -9 -10
-11 -8 -8 -14 -13 -11 -10 -9 -9 -11 -13 -12 -11 -11 -12 -15 -15 -13 -13 -11 -10 -10 -10 -9 -9 -9 -10 -12 -13 -14 -14 -13 -15 -13 -12 -9 -9 -8 -8 -8 -8 -9 -9
-5 -8 -13 -13 -11 -10 -9 -10 -11 -10 -10 -10 -11 -12 -13 -14 -15 -13 -13 -12 -13 -13 -11 -11 -11 -11 -11 -12 -12 -12 -13 -13 -13 -14 -14 -13 -11 -8 -10 -9 -9 -8 -7
-7 -12 -13 -12 -11 -10 -10 -12 -11 -10 -10 -11 -12 -13 -13 -14 -14 -13 -12 -11 -12 -12 -13 -12 -12 -13 -13 -14 -14 -13 -13 -12 -11 -12 -11 -13 -15 -14 -12 -12 -12 -11 -11
-11 -12 -11 -10 -10 -10 -12 -13 -13 -13 -13 -13 -13 -15 -13 -13 -13 -12 -12 -12 -13 -13 -13 -12 -11 -11 -12 -11 -11 -10 -10 -10 -10 -12 -13 -12 -13 -14 -15 -16 -15 -13 -12
-12 -11 -10 -10 -11 -12 -13 -15 -16 -15 -14 -15 -14 -14 -14 -13 -12 -13 -12 -12 -12 -13 -13 -14 -14 -13 -12 -12 -11 -11 -10 -10 -9 -10 -12 -10 -13 -11 -11 -14 -14 -12 -12

GFSMA_850_dewp_009.txt.gz
Dewpoint
2 1 3 2 2 0 -2 -2 -2 -2 -2 -2 -2 -2 0 4 4 4 4 4 3 1 1 1 -0 -1 -3 -5 -6 -6 -8 -8 -5 -0 4 5 5 7 7 9 10 9 8
5 5 5 4 3 2 0 -1 -2 -2 -1 -1 -0 -1 0 3 3 1 3 3 3 3 3 2 1 -0 -1 -2 -2 -3 -4 -7 -9 -8 -7 -2 5 5 6 7 9 10 9
5 6 6 5 3 0 -0 -0 -0 -0 -0 -0 1 2 2 2 1 -0 0 2 2 2 2 2 2 0 -0 -0 -1 -1 -2 -4 -6 -10 -9 -8 -6 2 6 7 8 9 10
6 5 3 0 -1 -1 -0 -0 -0 -0 -0 -1 -1 -1 -1 -1 -1 -0 -0 -1 -1 1 1 2 2 2 0 -1 -1 -1 -1 -2 -4 -8 -9 -8 -8 -5 4 7 8 8 10
3 1 -1 -1 -0 0 0 0 -0 -1 -1 -1 -1 -2 -5 -7 -8 -9 -10 -7 -4 -3 -2 -1 -0 1 3 2 1 -1 -2 -2 -3 -4 -6 -9 -8 -8 -5 4 7 8 8
-2 -1 -0 0 -2 -0 0 -0 -1 -2 -2 -3 -3 -5 -6 -7 -7 -11 -13 -12 -10 -5 -2 -1 1 2 2 2 2 1 -0 -2 -2 -2 -3 -8 -8 -8 -8 -7 3 7 8
1 0 -2 -3 -2 -1 -2 -3 -3 -4 -5 -5 -6 -7 -7 -9 -9 -11 -4 -3 -3 -4 -4 -1 1 2 3 3 3 2 1 -0 -2 -2 -2 -3 -8 -6 -8 -9 -8 -1 6
-2 -2 -3 -2 -1 -2 -4 -6 -8 -9 -11 -12 -10 -11 -4 -6 -4 -2 -4 -2 -1 -1 -2 -2 -2 -3 -2 0 3 3 2 1 -1 4 0 -1 -3 -5 -5 -9 -9 -8 -5
-2 -2 -2 -2 -3 -4 -6 -8 -10 -11 -11 -11 -10 -4 -2 -1 -2 -3 -4 -4 -2 -3 -5 -6 -7 -6 -7 -6 -3 0 1 2 1 -1 1 1 -2 1 -4 -8 -10 -10 -8
-1 -1 -3 -2 -2 -6 -9 -10 -12 -14 -9 -7 -6 -4 -4 -3 -1 -2 -4 -6 -6 -7 -8 -9 -8 -8 -8 -10 -10 -8 -4 -2 2 2 -1 1 -1 -2 -3 -7 -11 -11 -10
-2 -2 -1 -0 -3 -7 -7 -6 -5 -13 -6 -3 -2 -3 -3 -2 -2 -2 -2 -3 -4 -7 -9 -10 -8 -8 -8 -8 -8 -11 -11 -6 -1 -1 2 1 -1 -3 -3 -6 -9 -10 -10
0 -0 -1 -4 -4 -6 -5 -4 -8 -9 -6 -6 -6 -6 -5 -3 -3 -3 -3 -3 -3 -5 -5 -8 -8 -7 -8 -6 -4 -4 -4 -1 -1 -2 1 2 -0 -1 -2 -6 -6 -6 -7
-3 -4 -4 -3 -3 -3 -11 -12 -10 -11 -11 -11 -12 -14 -14 -11 -8 -6 -5 -4 -4 -6 -6 -4 -4 -4 -6 -10 -7 -5 -3 -0 1 1 -2 1 1 -1 -4 -5 -7 -5 -4
-3 -2 -2 -4 -8 -13 -16 -17 -16 -14 -14 -15 -14 -14 -14 -13 -8 -7 -6 -7 -7 -6 -7 -8 -8 -5 -6 -10 -8 -7 -5 -3 -2 -1 -0 -0 0 1 -1 -5 -5 -5 -6
-2 -2 -4 -3 -4 -9 -15 -17 -15 -13 -13 -13 -13 -13 -12 -12 -12 -11 -10 -11 -12 -6 -9 -10 -6 -8 -6 -8 -9 -10 -9 -7 -3 -3 -0 -0 0 0 -0 -1 -3 -4 -6
-2 -1 -1 -3 -7 -7 -15 -16 -14 -13 -14 -13 -13 -13 -11 -10 -10 -11 -12 -14 -13 -14 -10 -9 -10 -8 -6 -6 -8 -10 -10 -9 -9 -8 -6 -1 -1 0 0 -0 0 0 -0
-2 -2 -3 -6 -5 -11 -14 -15 -16 -14 -13 -12 -11 -10 -10 -11 -10 -11 -11 -12 -13 -13 -14 -16 -12 -10 -7 -7 -6 -9 -11 -10 -9 -9 -4 -4 -1 -1 -1 -2 -3 -3 -0
-1 -2 -4 -4 -11 -13 -14 -15 -14 -13 -12 -11 -10 -10 -9 -9 -9 -10 -12 -15 -16 -15 -14 -14 -15 -8 -8 -9 -7 -7 -10 -10 -8 -8 -10 -7 -2 -1 -2 -2 -3 -6 -8
-6 -3 -4 -7 -12 -14 -14 -13 -13 -12 -11 -10 -9 -9 -9 -12 -13 -14 -15 -16 -14 -12 -11 -11 -13 -7 -8 -8 -9 -9 -12 -11 -10 -9 -8 -10 -7 -3 -2 -3 -5 -5 -7
-3 -6 -7 -11 -14 -12 -14 -13 -11 -10 -9 -9 -10 -12 -12 -12 -12 -14 -15 -13 -10 -9 -9 -8 -10 -8 -8 -9 -11 -11 -13 -11 -12 -12 -8 -7 -7 -5 -3 -3 -5 -7 -8
-3 -5 -8 -12 -8 -13 -13 -11 -10 -9 -10 -12 -11 -10 -10 -11 -12 -14 -12 -12 -13 -11 -10 -10 -9 -8 -9 -10 -10 -12 -13 -15 -14 -15 -14 -9 -7 -5 -5 -4 -4 -7 -8
-3 -8 -7 -8 -12 -13 -11 -10 -10 -11 -12 -10 -10 -11 -11 -13 -14 -14 -14 -11 -11 -11 -11 -11 -11 -10 -10 -9 -10 -11 -12 -14 -16 -16 -17 -14 -10 -8 -7 -8 -8 -8 -8
-4 -5 -7 -10 -12 -11 -11 -10 -11 -12 -12 -12 -13 -12 -12 -13 -14 -13 -13 -13 -13 -12 -11 -11 -11 -11 -11 -12 -12 -12 -13 -14 -14 -15 -14 -17 -14 -12 -9 -9 -9 -8 -7
-6 -6 -11 -12 -11 -11 -10 -12 -13 -15 -17 -16 -14 -15 -14 -13 -12 -12 -12 -11 -12 -13 -12 -11 -11 -11 -11 -12 -12 -13 -14 -13 -13 -14 -14 -12 -17 -17 -18 -9 -8 -11 -10
-8 -12 -11 -10 -10 -10 -11 -13 -16 -17 -16 -15 -15 -14 -13 -13 -13 -12 -12 -12 -12 -13 -14 -14 -14 -13 -11 -11 -11 -11 -10 -10 -10 -11 -13 -11 -13 -15 -16 -18 -17 -9 -13
-10 -9 -7 -9 -10 -11 -12 -15 -17 -16 -15 -15 -14 -14 -14 -14 -13 -13 -13 -13 -13 -13 -12 -13 -13 -13 -13 -13 -12 -11 -11 -10 -9 -10 -11 -11 -12 -11 -11 -13 -15 -16 -16

GFSMA_850_dewp_012.txt.gz
Dewpoint
3 3 2 2 3 2 1 -0 -1 -1 -1 -1 -1 -1 -0 2 2 2 2 3 3 1 -1 -3 0 1 0 0 0 -2 -2 -3 -5 -8 -8 -3 4 5 7 8 8 8 9
4 5 5 5 4 3 2 0 -0 -0 -0 -0 -0 0 1 1 1 1 1 0 1 2 2 1 1 1 1 0 -1 -1 -1 -2 -2 -4 -7 -9 -8 -3 5 6 7 8 9
5 6 6 5 4 2 -0 -0 -1 -0 -0 -0 -1 -1 -1 -1 -1 -2 -3 -4 -2 -2 -0 2 2 -0 0 1 1 -0 -1 -1 -2 -1 -5 -9 -10 -9 -7 3 6 8 8
6 5 4 3 0 -1 -1 -2 -0 -0 -1 -1 -1 -1 -1 -2 -4 -7 -7 -8 -9 -10 -8 -4 -2 -0 1 2 2 1 0 -0 2 -1 -2 -4 -8 -9 -8 -6 2 6 7
2 1 -0 0 1 -2 -3 -2 -1 -1 -2 -2 -2 -2 -2 -4 -6 -7 -7 -9 -11 -10 -9 -8 -6 -5 -3 -2 -1 1 2 1 0 1 1 -2 -2 -8 -8 -8 -7 3 6
-0 0 1 -1 -3 -2 -3 -2 -2 -2 -4 -6 -7 -7 -7 -7 -8 -7 -9 -8 -5 -4 -4 -4 -3 -1 -2 -2 1 1 1 1 1 0 3 4 1 -2 -8 -8 -8 -8 2
-0 -2 -3 -2 -2 -2 -2 -3 -4 -6 -6 -7 -8 -7 -7 -9 -9 -13 -7 -5 -9 -6 -5 -5 -4 -4 -4 -3 -1 1 2 2 2 1 0 4 5 2 -2 -7 -6 -8 -8
-1 -1 -2 -2 -2 -3 -3 -3 -3 -7 -12 -16 -17 -17 -10 -12 -10 -9 -18 -10 -7 -9 -5 -7 -10 -11 -11 -8 -7 -5 -2 1 2 2 1 0 4 5 3 -2 -5 -6 -9
-1 -1 -1 -1 -2 -1 -1 -3 -6 -10 -10 -12 -16 -8 -5 -6 -5 -8 -13 -13 -8 -6 -10 -7 -8 -10 -11 -12 -12 -11 -12 -9 -4 -1 2 1 2 4 4 2 -2 -4 -9
-1 -1 -1 -2 -2 -1 -4 -7 -7 -8 -8 -12 -11 -6 -3 -2 -2 -3 -4 -4 -5 -6 -8 -8 -9 -11 -10 -8 -9 -10 -13 -15 -14 -8 -3 -2 1 2 3 4 -0 -3 -6
-3 -4 -7 -3 -3 -3 -4 -5 -5 -6 -11 -11 -11 -11 -11 -9 -7 -3 -3 -4 -4 -6 -5 -8 -8 -7 -6 -7 -7 -8 -10 -11 -13 -12 -8 -4 -0 2 2 4 3 -2 -5
-4 -6 -4 -3 -3 -3 -8 -10 -13 -15 -16 -14 -13 -13 -14 -12 -10 -7 -6 -6 -6 -8 -6 -7 -8 -7 -5 -5 -8 -8 -7 -9 -11 -10 -2 -1 -1 2 3 2 1 -1 -5
-4 -4 -3 -1 -2 -6 -7 -9 -10 -13 -17 -16 -15 -15 -13 -14 -13 -12 -9 -9 -10 -11 -11 -13 -11 -8 -7 -5 -6 -9 -7 -5 -4 -4 -1 0 1 1 1 2 1 -1 -6
-4 -2 -3 -2 -3 -4 -3 -7 -13 -17 -15 -14 -15 -14 -13 -14 -13 -12 -11 -10 -10 -11 -12 -14 -16 -16 -10 -7 -7 -8 -9 -7 -6 -3 -2 -3 -0 1 1 1 -2 -4 -5
-7 -3 -2 -2 -2 -2 -4 -9 -15 -15 -13 -14 -13 -12 -12 -12 -11 -10 -9 -10 -11 -10 -11 -12 -15 -17 -16 -9 -6 -8 -10 -9 -8 -6 -3 -3 -2 -2 0 1 0 -2 -4
-3 -2 -3 -2 -2 -3 -6 -12 -14 -16 -14 -13 -12 -12 -11 -11 -10 -10 -10 -10 -10 -11 -12 -11 -13 -16 -16 -13 -8 -5 -9 -6 -6 -9 -9 -8 -6 -1 -1 -1 -0 -0 -2
-3 -3 -3 -3 -4 -4 -11 -13 -14 -14 -13 -12 -11 -11 -10 -10 -10 -9 -9 -12 -13 -15 -15 -16 -16 -16 -15 -14 -8 -6 -6 -9 -5 -7 -9 -10 -9 -6 -3 -1 -0 -0 -0
-4 -4 -5 -6 -4 -4 -12 -14 -14 -13 -12 -12 -11 -10 -10 -9 -9 -13 -13 -12 -13 -15 -14 -11 -13 -16 -15 -10 -9 -8 -9 -6 -8 -10 -8 -9 -10 -11 -9 -2 -1 -2 -3
-5 -5 -5 -3 -4 -10 -14 -10 -13 -13 -11 -11 -10 -9 -9 -11 -12 -11 -11 -12 -14 -15 -11 -10 -10 -10 -12 -8 -7 -8 -8 -9 -8 -9 -11 -9 -9 -11 -8 -6 -2 -3 -4
-5 -4 -3 -6 -7 -13 -11 -12 -13 -11 -11 -10 -10 -11 -11 -10 -10 -10 -11 -12 -13 -12 -13 -12 -11 -10 -9 -11 -8 -9 -9 -12 -12 -13 -12 -13 -9 -7 -7 -5 -3 -3 -4
-6 -4 -4 -7 -11 -10 -11 -12 -11 -11 -10 -11 -11 -12 -12 -12 -11 -11 -12 -12 -12 -12 -12 -11 -11 -12 -10 -9 -8 -9 -10 -11 -14 -16 -16 -15 -14 -8 -6 -6 -3 -3 -4
-4 -6 -5 -5 -7 -10 -11 -11 -11 -11 -11 -13 -17 -16 -15 -15 -15 -12 -13 -12 -12 -12 -12 -12 -12 -12 -12 -11 -10 -9 -9 -11 -13 -15 -16 -17 -16 -12 -7 -6 -5 -3 -4
-6 -6 -5 -6 -8 -11 -10 -10 -11 -11 -15 -18 -16 -15 -15 -15 -14 -13 -13 -13 -12 -12 -11 -11 -11 -12 -11 -11 -11 -11 -11 -11 -13 -14 -14 -16 -18 -16 -8 -8 -6 -5 -4
-7 -6 -7 -11 -11 -9 -9 -10 -11 -15 -19 -17 -16 -15 -14 -14 -14 -13 -12 -12 -12 -12 -12 -12 -12 -13 -12 -11 -11 -12 -12 -12 -13 -14 -14 -13 -17 -17 -15 -11 -8 -10 -6
-8 -10 -11 -10 -7 -9 -10 -11 -14 -18 -17 -17 -15 -14 -14 -14 -14 -12 -13 -13 -13 -13 -12 -12 -12 -12 -13 -14 -11 -10 -12 -11 -11 -12 -13 -12 -15 -15 -15 -17 -17 -9 -8
-7 -7 -7 -8 -9 -9 -11 -13 -16 -17 -17 -17 -16 -15 -14 -14 -13 -13 -13 -13 -13 -13 -13 -13 -13 -13 -13 -13 -14 -13 -12 -10 -10 -10 -11 -10 -11 -11 -12 -14 -16 -19 -18

GFSMA_850_dewp_015.txt.gz
Dewpoint
3 3 4 4 4 4 3 2 0 -0 -2 -2 -2 -2 -2 -0 0 1 0 1 1 1 1 1 1 0 -0 -1 -0 -1 -1 -1 -1 -1 -3 -6 -8 -3 4 6 8 8 8
4 5 6 6 6 5 4 2 -1 -2 -3 -2 -1 -1 -1 -1 -1 -1 -1 -1 -2 -2 -1 -1 0 2 2 1 -2 -1 1 -0 -1 -1 -1 -3 -5 -9 -7 0 5 7 8
6 5 6 6 5 2 0 -0 -3 -4 -2 -1 -1 -1 -1 -2 -2 -2 -3 -4 -4 -5 -7 -7 -7 -3 -1 0 1 0 1 2 1 -1 -1 -1 -2 -9 -9 -8 -5 5 6
6 6 4 2 0 1 -1 -2 -2 -2 -2 -1 -2 -2 -2 -2 -3 -4 -6 -7 -7 -7 -7 -8 -10 -11 -10 -5 -3 -1 1 2 2 2 0 -1 -1 -3 -8 -8 -8 -6 3
2 1 -0 0 1 -1 -2 -2 -2 -2 -3 -3 -4 -5 -4 -5 -5 -6 -6 -6 -7 -7 -7 -8 -10 -10 -8 -7 -6 -4 -2 -0 1 2 2 1 -1 -0 -1 -7 -8 -8 -6
-0 0 -1 -2 -2 -2 -2 -2 -3 -4 -4 -4 -4 -5 -6 -8 -9 -6 -6 -8 -9 -8 -12 -16 -15 -15 -14 -12 -8 -5 -3 -0 1 2 2 3 3 -1 1 -1 -6 -8 -8
0 -2 -1 -2 -2 -2 -2 -2 -2 -2 -2 -5 -9 -7 -11 -16 -11 -16 -17 -7 -11 -16 -14 -16 -13 -14 -19 -23 -19 -15 -10 -6 -2 0 1 2 4 3 -0 1 -1 -5 -7
-1 -1 -1 -2 -2 -2 -2 -2 -2 -5 -8 -9 -10 -7 -9 -8 -5 -8 -4 -11 -6 -14 -9 -9 -12 -11 -10 -11 -15 -20 -20 -20 -13 -7 -2 -0 2 4 4 1 2 -0 -5
-1 -1 -1 -3 -6 -5 -4 -3 -5 -5 -3 -5 -10 -6 -6 -8 -4 -5 -4 -5 -2 -3 -4 -5 -10 -12 -11 -13 -13 -12 -14 -14 -15 -15 -12 -8 -3 0 4 4 2 3 -1
-1 -3 -5 -7 -9 -4 -5 -4 -4 -5 -8 -8 -13 -6 -11 -5 -6 -8 -7 -6 -5 -6 -5 -5 -6 -10 -10 -6 -9 -10 -10 -11 -10 -11 -13 -15 -12 -6 -1 2 4 3 2
-2 -4 -8 -11 -8 -3 -3 -3 -6 -6 -10 -13 -11 -14 -8 -7 -7 -5 -9 -9 -8 -8 -7 -8 -6 -6 -9 -9 -8 -5 -7 -8 -9 -9 -10 -11 -10 -7 -4 -2 3 3 2
-11 -14 -12 -7 -5 -4 -2 -5 -6 -5 -6 -11 -17 -14 -10 -9 -10 -9 -9 -10 -10 -11 -10 -9 -8 -9 -10 -7 -9 -7 -5 -8 -9 -7 -5 -3 -4 -1 0 3 4 2 2
-17 -15 -8 -3 -2 -3 -4 -5 -3 -8 -16 -17 -16 -12 -12 -10 -9 -8 -9 -10 -10 -10 -10 -10 -9 -10 -11 -12 -8 -9 -6 -8 -8 -6 -5 -4 -2 -1 2 3 3 4 3
-21 -22 -13 -3 -2 -2 -4 -2 -5 -13 -16 -14 -14 -13 -12 -10 -12 -9 -8 -8 -9 -10 -11 -11 -10 -10 -9 -10 -13 -13 -6 -8 -9 -7 -6 -4 -2 -2 -0 -0 -1 -0 1
-26 -22 -10 -2 -1 -3 -4 -5 -9 -13 -16 -15 -14 -13 -12 -12 -11 -11 -10 -8 -8 -8 -10 -12 -12 -12 -11 -11 -10 -10 -6 -6 -8 -6 -6 -5 -4 -4 -3 -1 1 -0 -3
-24 -14 -3 -2 -3 -2 -5 -7 -12 -14 -14 -14 -13 -12 -12 -11 -10 -10 -9 -9 -8 -9 -10 -13 -13 -13 -12 -12 -10 -11 -8 -6 -6 -4 -4 -7 -6 -6 -4 -3 -1 0 -1
-19 -9 -3 -4 -4 -4 -5 -4 -11 -14 -13 -13 -12 -12 -11 -10 -10 -8 -8 -9 -11 -11 -11 -13 -13 -12 -10 -9 -10 -11 -8 -7 -5 -7 -7 -6 -7 -10 -10 -7 -2 -2 -0
-15 -9 -4 -4 -5 -5 -4 -6 -13 -11 -13 -13 -11 -11 -10 -9 -9 -9 -9 -10 -11 -11 -11 -12 -12 -10 -10 -9 -9 -9 -8 -9 -6 -6 -7 -10 -10 -8 -10 -12 -10 -5 -1
-12 -9 -6 -5 -5 -4 -5 -12 -11 -12 -13 -12 -11 -10 -10 -10 -9 -9 -10 -10 -10 -11 -11 -11 -11 -12 -11 -10 -9 -8 -7 -7 -7 -9 -9 -7 -10 -12 -10 -11 -9 -2 -3
-10 -6 -6 -5 -4 -7 -10 -11 -11 -11 -12 -11 -10 -11 -11 -11 -10 -10 -10 -10 -11 -11 -11 -11 -11 -11 -11 -11 -9 -9 -8 -9 -9 -10 -12 -13 -13 -14 -12 -10 -10 -3 -2
-8 -6 -6 -5 -5 -5 -7 -9 -12 -11 -10 -11 -11 -15 -18 -17 -16 -14 -11 -11 -11 -11 -11 -11 -12 -12 -11 -12 -10 -10 -9 -10 -10 -9 -11 -11 -11 -12 -12 -10 -7 -3 -3
-8 -6 -6 -5 -5 -6 -6 -10 -11 -10 -11 -11 -17 -18 -17 -16 -12 -13 -14 -13 -12 -12 -11 -11 -10 -12 -13 -12 -11 -10 -10 -9 -10 -10 -10 -11 -12 -11 -12 -10 -9 -5 -3
-8 -7 -6 -6 -6 -7 -10 -9 -9 -10 -11 -17 -18 -17 -15 -12 -13 -12 -12 -12 -12 -12 -12 -12 -11 -11 -12 -12 -11 -10 -10 -10 -10 -10 -9 -11 -11 -11 -11 -10 -8 -5 -4
-9 -8 -8 -9 -10 -9 -8 -9 -10 -12 -16 -18 -18 -16 -12 -12 -12 -13 -12 -12 -12 -12 -12 -12 -11 -11 -11 -11 -11 -11 -11 -10 -10 -10 -10 -10 -11 -9 -10 -16 -9 -5 -5
-8 -8 -8 -7 -7 -7 -10 -9 -11 -14 -18 -18 -19 -15 -13 -13 -13 -13 -12 -12 -12 -12 -12 -13 -12 -12 -12 -13 -12 -12 -11 -10 -10 -12 -12 -10 -11 -9 -9 -15 -13 -8 -6
-9 -8 -8 -8 -8 -10 -9 -10 -13 -15 -18 -18 -22 -20 -15 -14 -13 -13 -13 -13 -13 -12 -13 -13 -13 -12 -12 -12 -12 -12 -11 -11 -10 -10 -11 -10 -10 -10 -10 -12 -16 -15 -8

GFSMA_850_dewp_021.txt.gz
Dewpoint
6 3 6 8 8 7 6 6 5 5 3 3 3 2 2 2 1 1 1 0 0 -0 -1 -3 -4 -5 -5 -4 -2 0 1 1 1 -1 -0 -1 -1 -1 -3 -7 -5 3 6
2 5 5 8 7 7 6 5 4 3 3 2 2 1 1 1 1 1 1 1 0 0 -1 -2 -5 -7 -7 -7 -8 -8 -7 -2 0 1 -1 0 1 -0 -1 -1 -5 -7 -0
7 6 7 7 7 5 4 3 3 2 1 0 1 -0 -0 -2 -1 -1 -1 1 0 -0 -0 -1 -2 -3 -4 -6 -7 -8 -8 -9 -8 -3 -0 1 1 2 1 -0 -1 -5 -8
7 7 6 6 5 3 3 3 2 1 1 0 -0 -0 -1 -3 -3 -2 -3 -2 1 1 1 0 -1 -2 -6 -10 -12 -13 -14 -12 -10 -9 -7 -3 -0 2 3 2 1 -0 -4
4 5 5 4 0 2 2 2 2 2 1 1 -0 -2 -2 -4 -3 -4 -4 -3 1 0 -0 -2 -2 -4 -4 -5 -7 -14 -8 -2 -12 -14 -11 -10 -6 -2 1 3 4 1 -0
0 3 3 1 -0 2 2 3 3 2 2 -1 -3 -2 -3 -5 -5 -5 -2 -1 -2 -3 -1 -2 -3 -3 -4 -4 -5 -6 -2 -1 -0 0 -11 -19 -16 -9 -3 1 4 5 2
1 0 2 2 3 3 3 2 2 1 -2 -5 -4 -2 -3 -4 -6 -6 -6 -4 -2 -4 -4 -4 -3 -3 -4 -4 -4 -3 -3 -2 -0 -3 -10 -20 -23 -23 -16 -5 1 5 6
2 2 2 3 2 2 1 -0 -1 -1 -3 -4 -3 -3 -5 -7 -8 -6 -6 -5 -7 -5 -6 -4 -4 -5 -5 -5 -5 -6 -3 -3 -5 -7 -10 -17 -21 -22 -23 -21 -8 1 5
2 2 2 2 1 -1 -3 -3 -1 -1 -3 -4 -4 -4 -6 -7 -6 -6 -7 -8 -7 -6 -6 -7 -7 -7 -6 -7 -7 -8 -8 -6 -7 -10 -14 -11 -11 -17 -19 -20 -20 -9 0
2 1 0 -0 -1 -1 -1 -2 -4 -2 -2 -4 -4 -5 -4 -5 -5 -8 -10 -10 -9 -9 -9 -9 -10 -9 -9 -9 -8 -9 -10 -11 -10 -10 -17 -12 -7 -4 -7 -11 -11 -17 -7
-5 -6 -6 -5 -1 -1 -1 -1 -1 -2 -3 -3 -4 -4 -6 -7 -9 -10 -11 -11 -12 -12 -11 -11 -11 -10 -10 -10 -10 -10 -10 -11 -11 -11 -14 -15 -9 -3 -2 -2 -1 0 1
-9 -9 -8 -6 -5 -2 -1 -2 -2 -2 -2 -2 -5 -6 -7 -9 -10 -10 -11 -10 -11 -12 -12 -11 -11 -11 -11 -11 -11 -11 -11 -11 -9 -9 -11 -9 -9 -3 -2 -2 -1 1 1
-9 -9 -6 -6 -4 -4 -2 -2 -1 -1 -1 -4 -6 -6 -8 -8 -8 -8 -10 -10 -10 -11 -11 -11 -11 -11 -11 -12 -12 -12 -12 -11 -12 -12 -10 -9 -9 -6 -5 -6 -4 -1 0
-9 -8 -7 -4 -3 -3 -2 -3 -2 -2 -3 -3 -5 -6 -6 -6 -7 -8 -8 -8 -9 -10 -10 -10 -11 -11 -12 -12 -13 -12 -11 -11 -11 -11 -10 -9 -10 -7 -6 -5 -6 -3 -1
-9 -9 -6 -5 -4 -3 -2 -1 -1 -1 -3 -4 -3 -4 -5 -6 -6 -7 -8 -9 -9 -8 -8 -10 -11 -11 -13 -13 -12 -11 -11 -10 -8 -8 -11 -9 -10 -9 -6 -6 -6 -4 -2
-7 -7 -7 -6 -6 -5 -4 -2 -2 -4 -3 -3 -3 -5 -7 -6 -5 -7 -9 -9 -10 -9 -9 -11 -11 -12 -12 -11 -11 -10 -9 -9 -10 -9 -8 -11 -11 -10 -8 -5 -7 -7 -7
-7 -7 -7 -6 -5 -6 -6 -5 -4 -3 -3 -3 -4 -7 -6 -6 -6 -7 -9 -10 -11 -11 -10 -11 -12 -12 -11 -10 -10 -10 -10 -10 -10 -9 -9 -10 -9 -7 -8 -6 -9 -10 -9
-6 -7 -7 -6 -6 -6 -6 -4 -4 -3 -3 -5 -6 -6 -6 -7 -7 -9 -11 -11 -11 -12 -12 -12 -11 -10 -10 -10 -11 -11 -10 -10 -10 -11 -8 -6 -7 -6 -7 -6 -9 -10 -12
-7 -7 -6 -6 -6 -4 -5 -5 -7 -6 -6 -6 -5 -7 -7 -7 -7 -10 -10 -10 -11 -12 -11 -10 -10 -10 -10 -11 -11 -10 -11 -10 -10 -8 -7 -7 -7 -10 -12 -11 -9 -11 -12
-6 -6 -6 -7 -6 -6 -5 -5 -5 -5 -5 -6 -5 -6 -7 -8 -10 -9 -11 -11 -11 -10 -11 -10 -10 -11 -11 -11 -10 -9 -10 -11 -11 -9 -8 -6 -6 -8 -13 -12 -12 -10 -10
-6 -7 -7 -7 -7 -5 -4 -5 -6 -5 -6 -6 -7 -8 -10 -12 -12 -13 -12 -11 -11 -11 -11 -11 -11 -11 -11 -10 -9 -11 -10 -10 -10 -9 -8 -8 -6 -7 -8 -8 -9 -7 -10
-7 -7 -7 -7 -6 -4 -5 -8 -9 -8 -8 -7 -8 -11 -11 -12 -12 -12 -10 -10 -11 -11 -11 -10 -11 -12 -12 -11 -10 -10 -9 -11 -12 -10 -8 -10 -7 -7 -7 -9 -8 -8 -9
-6 -7 -7 -6 -5 -4 -6 -9 -9 -8 -8 -9 -10 -11 -11 -12 -11 -11 -11 -11 -11 -11 -11 -11 -10 -11 -10 -10 -10 -10 -10 -9 -10 -10 -9 -8 -9 -8 -8 -9 -10 -11 -13
-6 -7 -7 -6 -6 -5 -7 -9 -9 -10 -9 -9 -10 -10 -11 -11 -12 -12 -15 -12 -12 -13 -13 -13 -12 -12 -11 -12 -12 -12 -11 -11 -11 -12 -12 -11 -12 -11 -10 -8 -8 -10 -13
-6 -7 -7 -7 -7 -5 -7 -9 -9 -9 -8 -9 -9 -10 -11 -12 -12 -19 -20 -12 -12 -13 -14 -14 -14 -13 -14 -13 -13 -11 -12 -12 -11 -11 -10 -9 -11 -11 -10 -9 -10 -10 -10
-6 -7 -8 -8 -7 -6 -6 -8 -9 -9 -8 -9 -9 -10 -11 -12 -14 -26 -26 -20 -13 -12 -14 -13 -12 -12 -11 -10 -11 -11 -11 -10 -10 -11 -10 -9 -9 -11 -11 -11 -11 -10 -9

GFSMA_850_dewp_024.txt.gz
Dewpoint
9 5 2 5 3 7 7 6 6 5 4 3 3 2 1 1 1 1 1 1 1 1 1 -0 -1 -2 -4 -6 -7 -7 -7 -5 -1 1 2 2 1 -0 -2 -2 -3 -5 -6
3 4 3 5 6 7 7 6 4 3 3 2 1 1 0 -0 -1 -1 -0 -1 -1 0 1 0 -0 -1 -1 -2 -4 -5 -6 -7 -7 -8 -3 0 2 3 2 -1 -1 -2 -4
8 6 7 7 7 6 5 3 2 2 2 1 0 0 -0 -1 -2 -3 -3 -2 -2 -2 1 1 0 -0 -1 -2 -5 -5 -8 -10 -10 -9 -8 -8 -4 0 4 4 1 -0 -1
7 7 7 6 5 3 2 2 2 2 1 2 2 -0 -1 -2 -2 -4 -3 -3 -4 1 1 1 -0 -1 -2 -4 -5 -1 -0 0 -0 -7 -10 -11 -10 -8 -3 1 4 2 1
4 5 5 3 1 1 2 3 3 2 2 1 -0 -3 -4 -3 -4 -4 -5 -6 -4 1 0 -1 -1 -2 -3 -3 -3 -4 -2 0 1 1 1 -3 -15 -15 -11 -8 -2 4 4
-0 1 3 2 2 3 3 3 2 1 1 1 -4 -6 -4 -2 -4 -6 -4 -4 -4 -3 -3 -3 -3 -3 -3 -3 -4 -3 -2 -1 -1 1 0 -0 -3 -15 -23 -20 -13 -4 2
2 1 2 3 3 3 2 2 -1 -2 -2 -3 -3 -3 -3 -4 -5 -7 -5 -5 -5 -4 -5 -5 -4 -3 -4 -5 -4 -4 -4 -2 -1 -1 -2 -2 -2 -4 -18 -24 -26 -21 -8
2 2 2 2 2 1 -2 -4 -3 -3 -1 -2 -3 -4 -3 -4 -5 -6 -7 -7 -7 -7 -7 -6 -5 -7 -7 -7 -6 -6 -6 -8 -8 -5 -4 -3 -3 -3 -3 -10 -22 -26 -23
2 1 1 0 -3 -2 -2 -2 -2 -2 -1 -1 -4 -4 -4 -3 -4 -4 -6 -7 -9 -10 -10 -10 -10 -9 -9 -9 -9 -9 -8 -9 -9 -10 -9 -6 -5 -5 -3 -2 -3 -12 -22
2 -1 -3 -4 -3 -3 -1 -2 -1 -2 -2 -2 -3 -3 -3 -5 -6 -7 -8 -9 -11 -11 -11 -11 -11 -11 -11 -10 -10 -10 -11 -10 -10 -11 -10 -7 -6 -6 -4 -3 -2 -2 -2
-4 -7 -8 -8 -10 -10 -5 -3 -2 -1 -1 -2 -3 -2 -5 -6 -7 -9 -9 -9 -10 -12 -11 -11 -10 -10 -11 -11 -11 -11 -10 -11 -11 -11 -10 -8 -7 -6 -5 -4 -2 -1 -1
-9 -9 -10 -13 -18 -8 -5 -3 -2 -2 -2 -1 -2 -3 -6 -6 -8 -8 -8 -8 -8 -9 -10 -10 -10 -10 -10 -10 -11 -11 -12 -12 -12 -12 -12 -9 -8 -7 -6 -5 -2 -1 -1
-10 -11 -13 -14 -10 -8 -4 -2 -2 -1 -2 -3 -2 -4 -5 -8 -7 -7 -7 -7 -7 -8 -9 -9 -12 -11 -10 -10 -12 -12 -12 -13 -13 -12 -11 -9 -8 -7 -6 -5 -3 -3 -2
-13 -11 -10 -11 -12 -5 -3 -2 -2 -4 -3 -3 -2 -3 -3 -5 -6 -5 -6 -6 -7 -8 -8 -8 -9 -11 -11 -12 -10 -12 -12 -12 -11 -11 -11 -11 -9 -7 -7 -6 -5 -4 -6
-10 -9 -9 -9 -7 -6 -5 -3 -5 -2 -2 -3 -2 -3 -3 -5 -4 -5 -6 -6 -8 -8 -8 -8 -9 -9 -10 -11 -11 -11 -12 -11 -10 -10 -12 -13 -11 -8 -7 -7 -10 -7 -6
-11 -8 -7 -7 -6 -6 -6 -5 -4 -4 -4 -4 -4 -3 -3 -4 -4 -6 -5 -6 -8 -9 -9 -10 -10 -10 -10 -11 -11 -12 -11 -11 -13 -13 -12 -11 -10 -9 -9 -10 -8 -8 -6
-7 -6 -7 -7 -6 -6 -6 -6 -5 -5 -4 -5 -5 -4 -3 -4 -5 -6 -7 -8 -9 -10 -10 -10 -11 -11 -11 -11 -13 -12 -12 -13 -12 -10 -10 -11 -10 -10 -9 -9 -7 -8 -7
-6 -6 -6 -7 -6 -6 -6 -7 -8 -6 -6 -5 -5 -5 -5 -5 -6 -7 -8 -10 -10 -11 -11 -11 -11 -11 -10 -13 -11 -11 -11 -11 -10 -10 -11 -9 -9 -8 -6 -6 -6 -7 -8
-6 -6 -6 -6 -6 -6 -5 -4 -5 -5 -6 -6 -6 -5 -5 -6 -7 -8 -9 -11 -11 -13 -11 -10 -11 -12 -11 -11 -12 -11 -10 -10 -11 -10 -11 -10 -9 -9 -6 -7 -11 -10 -9
-6 -6 -6 -6 -7 -7 -6 -5 -5 -5 -6 -5 -5 -6 -7 -8 -9 -11 -11 -13 -14 -13 -12 -12 -11 -12 -12 -13 -12 -12 -12 -11 -13 -12 -12 -12 -10 -9 -7 -9 -11 -11 -12
-6 -6 -6 -7 -7 -7 -5 -4 -5 -7 -6 -6 -6 -7 -8 -10 -11 -12 -12 -12 -11 -11 -12 -13 -13 -13 -12 -11 -12 -12 -10 -11 -12 -12 -11 -12 -8 -9 -7 -10 -8 -7 -7
-7 -7 -6 -7 -6 -6 -5 -5 -6 -10 -10 -9 -8 -9 -10 -11 -12 -12 -11 -10 -10 -11 -12 -11 -11 -11 -11 -10 -11 -11 -12 -12 -12 -12 -11 -11 -11 -10 -7 -7 -7 -7 -8
-8 -7 -6 -6 -6 -6 -6 -6 -9 -12 -12 -9 -9 -9 -10 -11 -11 -11 -11 -12 -18 -14 -12 -12 -11 -10 -11 -11 -12 -14 -14 -14 -14 -14 -12 -13 -14 -13 -10 -9 -8 -8 -10
-8 -7 -6 -6 -6 -6 -6 -6 -7 -10 -10 -9 -9 -10 -10 -10 -10 -13 -14 -22 -26 -18 -13 -13 -12 -13 -13 -14 -15 -13 -13 -13 -13 -14 -15 -12 -11 -12 -14 -13 -12 -11 -10
-7 -6 -6 -7 -7 -7 -7 -6 -6 -8 -10 -10 -9 -9 -9 -10 -11 -12 -15 -24 -26 -24 -15 -15 -19 -17 -14 -13 -12 -10 -12 -11 -12 -14 -14 -12 -13 -10 -12 -13 -14 -15 -14
-6 -6 -6 -6 -7 -7 -7 -7 -7 -8 -10 -10 -9 -10 -10 -10 -10 -11 -18 -23 -23 -21 -23 -19 -14 -13 -13 -12 -11 -10 -10 -10 -10 -11 -13 -11 -12 -9 -9 -11 -11 -10 -10

GFSMA_850_dewp_027.txt.gz
Dewpoint
9 7 7 6 4 5 7 7 6 6 5 3 1 1 1 1 0 -1 -1 -1 -1 -1 -2 -1 1 -0 -0 -1 -1 -2 -4 -5 -6 -7 -7 -5 -1 1 2 3 2 0 3
6 5 3 3 5 6 7 7 6 4 2 1 2 -0 -1 -1 -1 -1 -2 -3 -2 -2 -3 -0 1 1 1 -0 -1 -2 -3 -6 -8 -8 -8 -4 -7 -6 -1 1 2 3 2
7 7 7 7 6 6 5 3 0 1 0 0 0 -0 -1 -1 -1 -2 -2 -4 -3 -4 -3 2 1 0 -0 -1 -2 -3 -3 -1 0 -5 -5 -6 -8 -8 -8 -6 0 2 3
7 8 7 6 4 1 -0 -1 -1 0 1 1 -1 -4 -5 -3 -3 -4 -4 -4 -6 -5 -1 1 0 -1 -1 -2 -1 -2 -2 1 0 1 1 1 -2 -8 -12 -11 -9 -4 2
6 5 2 -1 -0 -0 -1 0 1 2 1 -2 -2 -5 -10 -5 -5 -6 -6 -5 -4 -2 -2 -1 -2 -3 -3 -2 -3 -2 -1 -1 -1 0 -0 -1 -0 -6 -11 -14 -17 -15 -10
0 -2 -1 -1 -0 1 1 2 2 1 -5 -6 -5 -6 -6 -2 -3 -6 -6 -4 -3 -4 -5 -4 -4 -4 -3 -3 -3 -4 -2 -3 -2 -2 -1 -1 -1 -1 -5 -15 -17 -19 -22
-0 0 1 1 1 2 2 2 -2 -7 -6 -7 -4 -5 -6 -11 -5 -6 -6 -6 -6 -7 -7 -8 -7 -7 -6 -7 -7 -7 -7 -3 -5 -4 -4 -4 -4 -4 -3 -4 -10 -11 -11
1 1 1 1 0 -2 -6 -8 -8 -6 -5 -2 -1 -3 -5 -5 -5 -4 -5 -6 -6 -8 -10 -10 -11 -10 -9 -10 -10 -10 -9 -11 -8 -7 -8 -6 -5 -5 -4 -4 -3 -3 -3
2 1 -1 -2 -4 -5 -4 -3 -5 -7 -1 -2 -2 -3 -3 -3 -4 -5 -6 -7 -9 -9 -11 -11 -11 -11 -11 -11 -11 -11 -10 -10 -10 -10 -9 -6 -6 -6 -6 -5 -4 -3 -2
-0 -1 -2 -5 -5 -6 -6 -6 -4 -4 -2 -1 -1 -2 -4 -4 -4 -6 -7 -9 -10 -10 -11 -12 -11 -10 -10 -10 -10 -10 -10 -10 -10 -11 -9 -8 -7 -7 -7 -6 -5 -4 -3
0 0 -4 -11 -12 -15 -21 -18 -10 -2 -2 -1 -2 -2 -3 -3 -5 -7 -8 -8 -9 -10 -11 -10 -10 -11 -11 -11 -10 -10 -11 -11 -11 -12 -11 -8 -8 -8 -8 -7 -7 -5 -5
-1 -8 -13 -17 -21 -22 -21 -12 -5 -3 -2 -2 -1 -2 -4 -4 -6 -7 -7 -8 -8 -8 -9 -9 -10 -12 -11 -12 -11 -10 -11 -12 -12 -12 -12 -9 -8 -8 -8 -7 -7 -5 -5
-11 -16 -23 -22 -23 -18 -15 -6 -3 -3 -2 -3 -4 -3 -3 -4 -5 -6 -6 -6 -7 -9 -8 -9 -11 -12 -10 -11 -12 -12 -12 -12 -12 -12 -12 -10 -8 -8 -8 -8 -7 -6 -5
-18 -24 -24 -20 -17 -19 -13 -6 -4 -3 -5 -3 -2 -2 -2 -3 -3 -4 -4 -5 -6 -6 -7 -9 -10 -11 -10 -10 -10 -10 -11 -11 -12 -12 -12 -12 -9 -9 -9 -7 -6 -6 -6
-19 -19 -17 -17 -20 -12 -11 -10 -6 -5 -3 -3 -3 -4 -3 -3 -3 -3 -3 -4 -5 -6 -7 -9 -10 -9 -9 -9 -10 -10 -11 -11 -13 -14 -13 -15 -14 -9 -8 -7 -6 -6 -6
-12 -13 -13 -13 -11 -8 -7 -6 -6 -6 -5 -5 -5 -6 -4 -3 -4 -4 -4 -5 -6 -8 -8 -9 -10 -10 -11 -11 -11 -11 -12 -14 -15 -14 -13 -11 -11 -11 -9 -9 -11 -8 -7
-7 -8 -9 -9 -8 -7 -6 -5 -6 -6 -6 -7 -6 -6 -4 -4 -4 -5 -6 -6 -8 -9 -10 -10 -11 -13 -13 -14 -14 -14 -14 -13 -12 -11 -11 -12 -11 -9 -10 -9 -9 -7 -9
-5 -6 -7 -6 -8 -7 -6 -6 -6 -6 -6 -6 -6 -5 -5 -5 -5 -6 -6 -8 -10 -10 -12 -13 -17 -16 -15 -14 -14 -14 -14 -13 -12 -11 -10 -11 -10 -10 -11 -12 -9 -8 -7
-5 -6 -6 -6 -7 -7 -7 -7 -6 -5 -5 -7 -6 -5 -5 -5 -6 -8 -9 -10 -11 -12 -15 -14 -15 -15 -14 -14 -14 -14 -13 -13 -14 -13 -14 -14 -12 -12 -11 -11 -11 -8 -8
-5 -6 -6 -6 -6 -7 -7 -7 -6 -5 -4 -7 -7 -5 -6 -7 -8 -10 -10 -12 -13 -13 -13 -14 -15 -14 -13 -14 -12 -11 -11 -13 -14 -15 -15 -12 -9 -11 -11 -11 -8 -7 -9
-6 -7 -8 -7 -6 -7 -7 -6 -6 -5 -4 -8 -6 -7 -8 -9 -10 -10 -12 -12 -12 -12 -12 -16 -13 -12 -13 -12 -10 -10 -11 -13 -16 -16 -16 -15 -12 -13 -14 -12 -7 -8 -9
-8 -9 -8 -6 -6 -6 -6 -6 -8 -6 -10 -14 -12 -10 -9 -10 -10 -11 -11 -11 -11 -12 -17 -15 -11 -12 -11 -11 -12 -13 -14 -15 -15 -16 -14 -17 -15 -15 -16 -14 -8 -7 -7
-13 -8 -8 -7 -7 -6 -7 -6 -6 -7 -8 -11 -12 -12 -11 -10 -11 -11 -11 -11 -15 -21 -26 -18 -12 -11 -12 -13 -13 -14 -15 -12 -13 -14 -13 -12 -15 -15 -16 -14 -11 -10 -8
-9 -8 -8 -7 -6 -6 -6 -6 -6 -6 -6 -9 -10 -11 -10 -10 -11 -10 -11 -13 -15 -22 -24 -19 -12 -13 -15 -15 -12 -11 -12 -11 -11 -13 -13 -11 -13 -13 -15 -13 -15 -14 -13
-8 -10 -6 -6 -6 -6 -7 -7 -7 -6 -6 -8 -10 -11 -11 -10 -10 -11 -11 -11 -18 -20 -18 -19 -17 -15 -14 -13 -11 -11 -11 -10 -11 -13 -13 -11 -13 -12 -13 -11 -13 -13 -13
-6 -6 -6 -6 -6 -6 -6 -7 -8 -7 -9 -10 -12 -11 -11 -13 -11 -12 -12 -16 -18 -16 -15 -15 -18 -17 -14 -12 -12 -12 -11 -11 -10 -10 -10 -10 -11 -10 -12 -11 -11 -11 -11

GFSMA_850_dewp_030.txt.gz
Dewpoint
8 9 8 7 5 5 7 7 7 6 6 5 3 1 1 -0 -0 -2 -1 -2 -2 -2 -2 -0 -1 0 0 1 0 0 -1 -1 -4 -5 -7 -7 -6 -6 -4 0 1 2 3
9 8 8 5 3 5 6 7 6 5 2 0 0 0 -1 -3 -5 -1 -1 -2 -2 -3 -4 -3 0 1 0 -0 -1 -1 -2 -2 -3 -7 -9 -5 -8 -9 -8 -7 -5 -0 2
6 5 5 7 6 6 6 4 1 -0 -1 -1 -0 0 -5 -5 -2 -3 -3 -3 -4 -5 -3 0 1 0 -1 -0 -1 -1 -0 -1 -3 -6 -5 -7 -9 -12 -12 -13 -13 -10 -5
6 7 7 7 6 2 -1 -2 -2 -1 -1 1 0 -8 -10 -10 -5 -5 -6 -6 -5 -4 2 1 -1 -2 -2 -2 -2 -1 -1 -0 0 -0 -2 -4 -7 -10 -14 -18 -15 -14 -16
7 7 6 4 1 -1 -2 -1 -0 0 1 -1 -7 -10 -10 -6 -2 -3 -5 -5 -5 -4 -2 -0 -0 -2 -2 -3 -3 -3 -1 -1 -1 0 -2 -1 -3 -9 -12 -14 -10 -13 -14
4 -0 -0 -1 -1 -1 -0 0 1 0 -5 -11 -13 -12 -7 -6 -4 -5 -7 -6 -5 -6 -7 -5 -6 -8 -8 -7 -6 -6 -4 -3 -2 -3 -5 -6 -5 -4 -3 -4 -11 -7 -8
-2 -1 -1 -1 -1 0 0 -1 -6 -11 -14 -15 -9 -5 -5 -8 -7 -5 -6 -6 -6 -6 -7 -9 -10 -11 -10 -10 -10 -10 -7 -7 -4 -5 -6 -6 -5 -4 -4 -4 -3 -4 -6
-1 -1 -0 -0 -2 -2 -5 -11 -13 -14 -13 -10 -3 -2 -4 -5 -5 -6 -9 -8 -8 -11 -11 -10 -11 -11 -11 -10 -11 -10 -9 -8 -7 -7 -7 -7 -6 -6 -5 -5 -5 -4 -4
0 1 -0 -1 0 -5 -12 -11 -9 -7 -5 -4 -2 -2 -3 -4 -4 -6 -6 -8 -8 -9 -11 -10 -10 -12 -11 -10 -10 -10 -10 -10 -10 -10 -11 -6 -6 -6 -6 -7 -6 -6 -5
1 1 0 1 -1 -7 -8 -11 -16 -13 -6 -3 -1 -1 -1 -2 -3 -4 -6 -6 -8 -9 -9 -10 -11 -13 -12 -12 -11 -11 -10 -10 -10 -11 -11 -8 -7 -6 -6 -7 -7 -7 -6
2 -0 1 -1 -6 -11 -16 -23 -22 -16 -7 -2 -1 -1 -2 -3 -3 -4 -6 -7 -7 -8 -8 -9 -11 -10 -11 -12 -14 -14 -12 -12 -11 -11 -11 -8 -7 -7 -7 -7 -8 -7 -6
-1 -1 -6 -7 -13 -19 -23 -25 -21 -8 -4 -2 -2 -3 -4 -4 -3 -4 -5 -6 -6 -7 -7 -8 -10 -10 -11 -12 -14 -14 -13 -11 -11 -11 -11 -10 -8 -8 -8 -8 -7 -7 -7
-1 -0 -10 -15 -18 -20 -19 -16 -12 -9 -4 -3 -4 -3 -2 -2 -2 -3 -3 -4 -5 -5 -6 -9 -9 -9 -10 -11 -12 -11 -10 -10 -10 -10 -10 -11 -11 -9 -9 -8 -7 -7 -7
-7 -11 -16 -15 -18 -19 -18 -17 -14 -11 -6 -4 -4 -4 -4 -5 -5 -4 -3 -3 -3 -4 -5 -8 -8 -9 -10 -10 -10 -10 -10 -10 -10 -10 -11 -12 -15 -10 -8 -8 -7 -7 -7
-9 -12 -13 -17 -17 -17 -17 -16 -12 -7 -7 -6 -5 -5 -5 -7 -6 -4 -3 -3 -4 -5 -6 -7 -8 -10 -10 -10 -11 -11 -11 -11 -12 -15 -16 -14 -9 -9 -8 -8 -7 -7 -6
-9 -9 -11 -14 -15 -12 -14 -12 -8 -6 -5 -6 -6 -7 -7 -8 -5 -4 -4 -4 -5 -5 -6 -7 -9 -11 -12 -16 -18 -19 -18 -17 -16 -14 -13 -11 -12 -12 -9 -8 -8 -8 -8
-3 -6 -8 -9 -10 -8 -10 -10 -6 -6 -6 -6 -6 -6 -6 -6 -6 -5 -6 -6 -6 -6 -8 -10 -12 -15 -18 -19 -20 -17 -16 -15 -15 -13 -14 -12 -11 -12 -11 -10 -11 -12 -12
-4 -5 -5 -6 -7 -7 -9 -11 -7 -7 -5 -6 -6 -6 -6 -5 -5 -5 -6 -6 -8 -10 -11 -12 -15 -17 -20 -18 -16 -15 -15 -15 -14 -15 -14 -14 -15 -15 -13 -12 -13 -10 -13
-5 -5 -5 -6 -8 -7 -8 -7 -8 -7 -5 -5 -4 -5 -6 -5 -6 -7 -8 -9 -10 -11 -13 -13 -14 -18 -21 -16 -15 -15 -14 -14 -14 -14 -15 -16 -17 -12 -11 -12 -12 -12 -12
-5 -4 -6 -9 -9 -8 -7 -6 -7 -6 -5 -5 -5 -5 -6 -6 -7 -8 -9 -10 -11 -12 -12 -13 -16 -22 -20 -16 -14 -13 -14 -13 -15 -17 -17 -17 -16 -16 -11 -12 -14 -14 -7
-3 -4 -9 -10 -10 -7 -6 -6 -6 -6 -7 -6 -7 -10 -8 -8 -9 -9 -10 -11 -11 -11 -12 -15 -21 -24 -18 -14 -12 -12 -12 -14 -16 -16 -15 -13 -14 -17 -16 -15 -16 -16 -8
-3 -9 -8 -11 -8 -6 -6 -6 -6 -6 -6 -7 -9 -10 -13 -14 -14 -11 -11 -11 -11 -12 -15 -19 -24 -22 -15 -12 -12 -13 -14 -14 -12 -13 -11 -12 -14 -15 -16 -17 -18 -14 -9
-3 -6 -11 -8 -7 -7 -7 -6 -6 -6 -6 -7 -7 -7 -9 -13 -13 -12 -11 -10 -11 -13 -15 -21 -22 -19 -15 -15 -16 -13 -12 -11 -11 -12 -11 -12 -14 -13 -14 -16 -16 -14 -10
-6 -10 -9 -8 -8 -7 -6 -6 -6 -6 -6 -6 -6 -7 -10 -12 -12 -11 -11 -12 -13 -14 -18 -19 -17 -18 -16 -14 -13 -12 -11 -11 -12 -14 -12 -11 -12 -13 -14 -14 -9 -11 -14
-10 -10 -9 -8 -7 -6 -6 -6 -6 -6 -7 -6 -7 -9 -12 -12 -11 -11 -12 -14 -16 -18 -17 -16 -15 -15 -16 -14 -12 -11 -12 -12 -12 -14 -13 -10 -11 -10 -12 -15 -9 -11 -9
-10 -10 -8 -7 -6 -5 -5 -5 -5 -6 -8 -7 -8 -10 -11 -13 -12 -13 -14 -16 -18 -16 -15 -15 -15 -14 -16 -16 -14 -13 -12 -12 -11 -12 -13 -10 -10 -9 -11 -14 -15 -13 -10

GFSMA_850_dewp_033.txt.gz
Dewpoint
5 8 8 7 7 5 6 7 7 6 6 4 3 2 1 0 -2 -4 -4 -1 -1 -2 -3 1 -0 0 1 1 0 -0 -1 -1 -2 -2 -3 -7 -9 -10 -9 -8 -7 -7 -5
8 8 8 8 6 5 7 7 7 6 3 1 0 0 0 -3 -8 -5 -3 -2 -2 -3 -4 -1 2 2 2 0 -0 -1 -0 -0 -1 -2 -3 -4 -6 -9 -12 -14 -15 -14 -11
8 8 7 6 7 7 6 6 2 -0 -0 0 1 0 -5 -12 -14 -11 -9 -9 -8 -8 -5 -0 2 1 -0 1 1 1 1 1 1 1 -0 -2 -5 -6 -8 -9 -11 -16 -21
8 7 6 7 7 6 2 -1 -1 -0 0 0 -2 -10 -15 -14 -9 -6 -4 -5 -7 -5 -1 1 0 -1 -1 -1 -2 0 0 -1 -1 -0 1 0 -4 -7 -9 -11 -15 -18 -21
8 8 8 7 6 -0 -1 -1 -0 -0 -0 -6 -13 -16 -14 -7 -5 -3 -3 -4 -6 -4 1 0 -0 -2 -4 -6 -5 -3 -2 -2 -2 -0 -1 -3 -7 -9 -11 -11 -8 -8 -5
7 7 7 4 -1 -0 -0 -1 -1 -5 -11 -15 -19 -19 -12 -9 -8 -6 -7 -7 -6 -6 -6 -5 -4 -7 -9 -9 -8 -5 -5 -5 -4 -3 -4 -4 -4 -4 -4 -5 -3 -3 -3
6 4 0 -1 0 -0 -1 -2 -6 -13 -18 -20 -23 -17 -11 -9 -6 -7 -5 -7 -8 -6 -7 -10 -11 -10 -10 -11 -11 -11 -6 -6 -6 -6 -5 -5 -6 -5 -5 -5 -4 -4 -4
0 -1 0 0 -0 -1 -1 -3 -11 -17 -19 -20 -16 -10 -4 -6 -6 -7 -6 -8 -9 -10 -10 -11 -12 -10 -11 -11 -11 -11 -10 -9 -7 -7 -7 -7 -6 -5 -6 -6 -6 -5 -5
0 1 1 1 -1 -0 -1 -3 -13 -17 -21 -20 -11 -6 -3 -4 -3 -4 -5 -5 -7 -8 -8 -10 -10 -10 -11 -12 -11 -11 -11 -11 -10 -10 -8 -7 -6 -6 -6 -6 -6 -6 -5
2 1 1 -0 0 -2 -3 -10 -15 -22 -22 -15 -6 -2 -1 -1 -2 -3 -3 -4 -6 -6 -8 -8 -8 -9 -11 -12 -10 -12 -13 -13 -13 -11 -8 -8 -7 -7 -6 -6 -6 -6 -6
2 2 1 -1 -4 -4 -7 -18 -24 -23 -17 -9 -4 -1 -1 -2 -3 -3 -4 -4 -6 -6 -6 -6 -7 -8 -10 -10 -11 -13 -13 -14 -13 -10 -9 -7 -7 -7 -7 -6 -6 -7 -7
3 2 -1 -3 -3 -3 -19 -18 -23 -21 -13 -6 -3 -3 -4 -4 -3 -3 -3 -3 -4 -4 -4 -5 -6 -7 -9 -9 -10 -11 -12 -13 -12 -10 -10 -10 -8 -7 -7 -7 -8 -8 -7
3 -0 -4 -5 -1 -8 -10 -20 -19 -17 -14 -7 -5 -4 -4 -4 -4 -5 -4 -4 -3 -3 -4 -4 -5 -6 -7 -9 -10 -10 -11 -10 -10 -10 -10 -10 -10 -8 -8 -9 -9 -7 -7
-0 -4 -5 -1 -6 -16 -19 -18 -18 -15 -12 -8 -7 -6 -5 -6 -5 -6 -5 -3 -3 -4 -4 -4 -5 -6 -7 -10 -10 -10 -10 -11 -12 -12 -12 -12 -16 -12 -8 -8 -8 -7 -7
-2 -1 2 -11 -10 -15 -14 -15 -16 -15 -10 -6 -5 -6 -6 -8 -7 -7 -6 -3 -4 -4 -5 -6 -6 -7 -9 -11 -14 -18 -20 -21 -21 -20 -19 -17 -9 -9 -9 -8 -8 -8 -7
2 2 -6 -3 -7 -9 -13 -13 -13 -13 -8 -7 -7 -7 -6 -7 -7 -6 -6 -6 -6 -4 -5 -6 -8 -10 -12 -15 -18 -21 -21 -18 -17 -16 -15 -13 -12 -10 -9 -9 -9 -8 -8
-0 -6 -2 -4 -6 -10 -11 -9 -11 -12 -9 -8 -6 -6 -6 -6 -6 -7 -6 -6 -6 -6 -7 -8 -10 -11 -15 -17 -20 -21 -17 -16 -16 -15 -15 -15 -12 -15 -15 -15 -13 -11 -10
-6 -3 -5 -5 -5 -10 -10 -12 -9 -7 -8 -9 -6 -7 -5 -6 -5 -6 -5 -5 -6 -8 -10 -10 -11 -14 -16 -19 -23 -19 -17 -16 -15 -15 -15 -17 -18 -18 -18 -16 -11 -11 -11
-4 -4 -5 -5 -8 -10 -11 -10 -8 -6 -7 -7 -6 -6 -7 -6 -7 -6 -6 -7 -9 -10 -11 -12 -12 -14 -17 -21 -22 -20 -17 -16 -18 -20 -20 -17 -17 -16 -17 -17 -11 -10 -12
-4 -5 -5 -5 -7 -8 -10 -8 -6 -6 -6 -6 -7 -7 -6 -10 -7 -8 -9 -9 -10 -11 -11 -11 -13 -16 -20 -22 -21 -17 -18 -17 -21 -20 -16 -13 -12 -14 -15 -16 -16 -13 -13
-5 -4 -4 -4 -5 -9 -9 -6 -6 -6 -6 -6 -6 -7 -9 -11 -13 -13 -14 -12 -11 -11 -11 -12 -15 -18 -21 -21 -18 -17 -18 -18 -15 -15 -13 -14 -14 -15 -14 -15 -17 -15 -16
-5 -4 -1 -1 -3 -9 -7 -7 -7 -6 -6 -6 -6 -7 -7 -8 -8 -10 -14 -12 -11 -11 -11 -12 -14 -20 -20 -17 -18 -17 -15 -13 -12 -13 -13 -15 -14 -13 -13 -14 -15 -17 -18
-1 -1 -1 -3 -8 -8 -8 -7 -6 -6 -6 -6 -6 -6 -6 -7 -8 -11 -12 -12 -11 -11 -11 -12 -18 -18 -16 -16 -18 -16 -13 -12 -11 -13 -13 -14 -14 -12 -11 -12 -13 -9 -10
-2 -1 -5 -8 -10 -12 -10 -6 -6 -6 -6 -6 -6 -6 -6 -8 -12 -12 -11 -12 -12 -12 -13 -17 -16 -15 -15 -16 -15 -13 -12 -12 -13 -14 -13 -13 -13 -12 -12 -12 -13 -10 -10
-2 -7 -10 -11 -12 -13 -10 -8 -6 -6 -6 -6 -6 -7 -7 -11 -11 -13 -12 -13 -13 -14 -17 -16 -15 -15 -14 -15 -15 -15 -14 -13 -14 -14 -14 -11 -13 -11 -12 -13 -13 -10 -15
-9 -10 -11 -13 -14 -15 -14 -9 -5 -5 -5 -5 -7 -7 -8 -9 -10 -13 -13 -13 -14 -16 -16 -15 -14 -15 -14 -14 -14 -15 -14 -12 -13 -13 -14 -11 -12 -10 -10 -12 -14 -14 -14